Time,TemperatureF,DewpointF,PressureIn,WindDirection,WindDirectionDegrees,WindSpeedMPH,WindSpeedGustMPH,Humidity,HourlyPrecipIn,Conditions,Clouds,dailyrainin,SoftwareType,DateUTC
2013-07-16 00:01:00,73.0,69.0,-100.00,West,270,2.0,-999.0,89,-99.99,,,-99.99,,2013-07-16 05:01:00,
2013-07-16 00:22:00,72.0,68.0,-100.00,West,270,1.0,-999.0,90,-99.99,,,-99.99,,2013-07-16 05:22:00,
2013-07-16 00:32:00,71.0,68.0,-100.00,West,270,2.0,-999.0,90,-99.99,,,-99.99,,2013-07-16 05:32:00,
2013-07-16 00:43:00,71.0,68.0,-100.00,West,270,2.0,-999.0,90,-99.99,,,-99.99,,2013-07-16 05:43:00,
2013-07-16 00:52:00,70.0,68.0,-100.00,SSW,203,2.0,-999.0,92,-99.99,,,-99.99,,2013-07-16 05:52:00,
2013-07-16 01:01:00,71.0,68.0,-100.00,SW,225,3.0,-999.0,92,-99.99,,,-99.99,,2013-07-16 06:01:00,
2013-07-16 01:22:00,68.0,66.0,-100.00,South,180,6.0,-999.0,93,-99.99,,,-99.99,,2013-07-16 06:22:00,
2013-07-16 01:31:00,68.0,66.0,-100.00,SSW,203,6.0,-999.0,94,-99.99,,,-99.99,,2013-07-16 06:31:00,
2013-07-16 01:43:00,68.0,66.0,-100.00,SSW,203,6.0,-999.0,94,-99.99,,,-99.99,,2013-07-16 06:43:00,
2013-07-16 01:52:00,68.0,67.0,-100.00,South,180,6.0,-999.0,95,-99.99,,,-99.99,,2013-07-16 06:52:00,
2013-07-16 02:01:00,68.0,66.0,-100.00,SSE,158,5.0,-999.0,96,-99.99,,,-99.99,,2013-07-16 07:01:00,
2013-07-16 02:11:00,68.0,66.0,-100.00,SSE,158,5.0,-999.0,96,-99.99,,,-99.99,,2013-07-16 07:11:00,
2013-07-16 02:22:00,68.0,67.0,-100.00,SSE,158,5.0,-999.0,96,-99.99,,,-99.99,,2013-07-16 07:22:00,
2013-07-16 02:32:00,68.0,67.0,-100.00,SSE,158,5.0,-999.0,96,-99.99,,,-99.99,,2013-07-16 07:32:00,
2013-07-16 02:43:00,68.0,67.0,-100.00,SSE,158,5.0,-999.0,96,-99.99,,,-99.99,,2013-07-16 07:43:00,
2013-07-16 02:52:00,67.0,66.0,-100.00,South,180,5.0,-999.0,96,-99.99,,,-99.99,,2013-07-16 07:52:00,
2013-07-16 03:01:00,67.0,66.0,-100.00,SSE,158,5.0,-999.0,96,-99.99,,,-99.99,,2013-07-16 08:01:00,
2013-07-16 03:22:00,67.0,65.0,-100.00,SSE,158,4.0,-999.0,96,-99.99,,,-99.99,,2013-07-16 08:22:00,
2013-07-16 03:32:00,66.0,65.0,-100.00,SSE,158,5.0,-999.0,96,-99.99,,,-99.99,,2013-07-16 08:32:00,
2013-07-16 03:43:00,66.0,65.0,-100.00,SSE,158,5.0,-999.0,96,-99.99,,,-99.99,,2013-07-16 08:43:00,
2013-07-16 03:52:00,65.0,64.0,-100.00,SSE,158,4.0,-999.0,96,-99.99,,,-99.99,,2013-07-16 08:52:00,
2013-07-16 04:01:00,65.0,64.0,-100.00,SSE,158,4.0,-999.0,97,-99.99,,,-99.99,,2013-07-16 09:01:00,
2013-07-16 04:12:00,65.0,64.0,-100.00,SSE,158,4.0,-999.0,97,-99.99,,,-99.99,,2013-07-16 09:12:00,
2013-07-16 04:22:00,64.0,64.0,-100.00,SSE,158,4.0,-999.0,97,-99.99,,,-99.99,,2013-07-16 09:22:00,
2013-07-16 04:32:00,64.0,63.0,-100.00,SSE,158,4.0,-999.0,97,-99.99,,,-99.99,,2013-07-16 09:32:00,
2013-07-16 04:42:00,64.0,63.0,-100.00,SSE,158,4.0,-999.0,97,-99.99,,,-99.99,,2013-07-16 09:42:00,
2013-07-16 04:52:00,64.0,63.0,-100.00,SSE,158,4.0,-999.0,97,-99.99,,,-99.99,,2013-07-16 09:52:00,
2013-07-16 05:01:00,63.0,63.0,-100.00,South,180,5.0,-999.0,97,-99.99,,,-99.99,,2013-07-16 10:01:00,
2013-07-16 05:22:00,64.0,63.0,-100.00,South,180,4.0,-999.0,97,-99.99,,,-99.99,,2013-07-16 10:22:00,
2013-07-16 05:31:00,63.0,63.0,-100.00,SSE,158,5.0,-999.0,97,-99.99,,,-99.99,,2013-07-16 10:31:00,
2013-07-16 05:43:00,63.0,63.0,-100.00,SSE,158,5.0,-999.0,97,-99.99,,,-99.99,,2013-07-16 10:43:00,
2013-07-16 05:52:00,63.0,62.0,-100.00,South,180,4.0,-999.0,97,-99.99,,,-99.99,,2013-07-16 10:52:00,
2013-07-16 06:01:00,63.0,62.0,-100.00,SSW,203,5.0,-999.0,97,-99.99,,,-99.99,,2013-07-16 11:01:00,
2013-07-16 06:11:00,63.0,62.0,-100.00,SSW,203,5.0,-999.0,97,-99.99,,,-99.99,,2013-07-16 11:11:00,
2013-07-16 06:22:00,62.0,62.0,-100.00,SSW,203,5.0,-999.0,97,-99.99,,,-99.99,,2013-07-16 11:22:00,
2013-07-16 06:32:00,61.0,60.0,-100.00,SSW,203,4.0,-999.0,97,-99.99,,,-99.99,,2013-07-16 11:32:00,
2013-07-16 06:42:00,61.0,60.0,-100.00,SSW,203,4.0,-999.0,97,-99.99,,,-99.99,,2013-07-16 11:42:00,
2013-07-16 06:52:00,62.0,61.0,-100.00,SW,225,3.0,-999.0,97,-99.99,,,-99.99,,2013-07-16 11:52:00,
2013-07-16 07:01:00,62.0,62.0,-100.00,SSW,203,3.0,-999.0,97,-99.99,,,-99.99,,2013-07-16 12:01:00,
2013-07-16 07:11:00,62.0,62.0,-100.00,SSW,203,3.0,-999.0,97,-99.99,,,-99.99,,2013-07-16 12:11:00,
2013-07-16 07:22:00,63.0,62.0,-100.00,SE,135,3.0,-999.0,96,-99.99,,,-99.99,,2013-07-16 12:22:00,
2013-07-16 07:32:00,65.0,63.0,-100.00,SSE,158,2.0,-999.0,96,-99.99,,,-99.99,,2013-07-16 12:32:00,
2013-07-16 07:43:00,65.0,63.0,-100.00,SSE,158,2.0,-999.0,96,-99.99,,,-99.99,,2013-07-16 12:43:00,
2013-07-16 07:53:00,67.0,65.0,-100.00,South,180,2.0,-999.0,94,-99.99,,,-99.99,,2013-07-16 12:53:00,
2013-07-16 08:01:00,69.0,65.0,-100.00,SSE,158,3.0,-999.0,90,-99.99,,,-99.99,,2013-07-16 13:01:00,
2013-07-16 08:21:00,70.0,65.0,-100.00,South,180,4.0,-999.0,85,-99.99,,,-99.99,,2013-07-16 13:21:00,
2013-07-16 08:32:00,72.0,66.0,-100.00,South,180,5.0,-999.0,80,-99.99,,,-99.99,,2013-07-16 13:32:00,
2013-07-16 08:42:00,72.0,66.0,-100.00,South,180,5.0,-999.0,80,-99.99,,,-99.99,,2013-07-16 13:42:00,
2013-07-16 08:52:00,73.0,64.0,-100.00,SSW,203,5.0,-999.0,73,-99.99,,,-99.99,,2013-07-16 13:52:00,
2013-07-16 09:01:00,74.0,64.0,-100.00,SSW,203,6.0,-999.0,71,-99.99,,,-99.99,,2013-07-16 14:01:00,
2013-07-16 09:11:00,74.0,64.0,-100.00,SSW,203,6.0,-999.0,71,-99.99,,,-99.99,,2013-07-16 14:11:00,
2013-07-16 09:21:00,75.0,64.0,-100.00,South,180,6.0,-999.0,68,-99.99,,,-99.99,,2013-07-16 14:21:00,
2013-07-16 09:42:00,76.0,64.0,-100.00,SSW,203,6.0,-999.0,65,-99.99,,,-99.99,,2013-07-16 14:42:00,
2013-07-16 09:52:00,78.0,64.0,-100.00,SSW,203,7.0,-999.0,62,-99.99,,,-99.99,,2013-07-16 14:52:00,
2013-07-16 10:01:00,79.0,63.0,-100.00,SSW,203,6.0,-999.0,58,-99.99,,,-99.99,,2013-07-16 15:01:00,
2013-07-16 10:21:00,80.0,63.0,-100.00,SSW,203,4.0,-999.0,55,-99.99,,,-99.99,,2013-07-16 15:21:00,
2013-07-16 10:32:00,82.0,62.0,-100.00,SSW,203,8.0,-999.0,51,-99.99,,,-99.99,,2013-07-16 15:32:00,
2013-07-16 10:43:00,82.0,62.0,-100.00,SSW,203,8.0,-999.0,51,-99.99,,,-99.99,,2013-07-16 15:43:00,
2013-07-16 10:53:00,83.0,62.0,-100.00,SW,225,5.0,-999.0,49,-99.99,,,-99.99,,2013-07-16 15:53:00,
2013-07-16 11:43:00,86.0,61.0,-100.00,South,180,5.0,-999.0,44,-99.99,,,-99.99,,2013-07-16 16:43:00,
2013-07-16 11:52:00,86.0,61.0,-100.00,SSW,203,7.0,-999.0,43,-99.99,,,-99.99,,2013-07-16 16:52:00,
2013-07-16 12:12:00,87.0,60.0,-100.00,SSW,203,10.0,-999.0,40,-99.99,,,-99.99,,2013-07-16 17:12:00,
2013-07-16 12:43:00,89.0,60.0,-100.00,South,180,10.0,-999.0,39,-99.99,,,-99.99,,2013-07-16 17:43:00,
2013-07-16 13:11:00,90.0,61.0,-100.00,SSE,158,10.0,-999.0,38,-99.99,,,-99.99,,2013-07-16 18:11:00,
2013-07-16 13:22:00,89.0,60.0,-100.00,South,180,6.0,-999.0,38,-99.99,,,-99.99,,2013-07-16 18:22:00,
2013-07-16 13:32:00,91.0,60.0,-100.00,SW,225,11.0,-999.0,36,-99.99,,,-99.99,,2013-07-16 18:32:00,
2013-07-16 13:43:00,91.0,60.0,-100.00,SW,225,11.0,-999.0,36,-99.99,,,-99.99,,2013-07-16 18:43:00,
2013-07-16 14:01:00,91.0,60.0,-100.00,South,180,8.0,-999.0,35,-99.99,,,-99.99,,2013-07-16 19:01:00,
2013-07-16 14:11:00,91.0,60.0,-100.00,South,180,8.0,-999.0,35,-99.99,,,-99.99,,2013-07-16 19:11:00,
2013-07-16 15:52:00,93.0,60.0,-100.00,SSE,158,9.0,-999.0,33,-99.99,,,-99.99,,2013-07-16 20:52:00,
2013-07-16 16:01:00,93.0,60.0,-100.00,SSE,158,9.0,-999.0,33,-99.99,,,-99.99,,2013-07-16 21:01:00,
2013-07-16 16:43:00,95.0,61.0,-100.00,South,180,7.0,-999.0,33,-99.99,,,-99.99,,2013-07-16 21:43:00,
2013-07-16 16:52:00,94.0,62.0,-100.00,SSE,158,10.0,-999.0,34,-99.99,,,-99.99,,2013-07-16 21:52:00,
2013-07-16 17:01:00,92.0,60.0,-100.00,SSE,158,6.0,-999.0,34,-99.99,,,-99.99,,2013-07-16 22:01:00,
2013-07-16 17:33:00,95.0,61.0,-100.00,SSE,158,6.0,-999.0,33,-99.99,,,-99.99,,2013-07-16 22:33:00,
2013-07-16 18:22:00,93.0,60.0,-100.00,South,180,8.0,-999.0,34,-99.99,,,-99.99,,2013-07-16 23:22:00,
2013-07-16 19:01:00,91.0,61.0,-100.00,SE,135,8.0,-999.0,37,-99.99,,,-99.99,,2013-07-17 00:01:00,
2013-07-16 19:22:00,93.0,63.0,-100.00,SSE,158,6.0,-999.0,37,-99.99,,,-99.99,,2013-07-17 00:22:00,
2013-07-16 19:33:00,91.0,62.0,-100.00,SE,135,9.0,-999.0,39,-99.99,,,-99.99,,2013-07-17 00:33:00,
2013-07-16 19:42:00,91.0,62.0,-100.00,SE,135,9.0,-999.0,39,-99.99,,,-99.99,,2013-07-17 00:42:00,
2013-07-16 19:52:00,91.0,63.0,-100.00,SE,135,8.0,-999.0,40,-99.99,,,-99.99,,2013-07-17 00:52:00,
2013-07-16 20:01:00,90.0,64.0,-100.00,SSE,158,5.0,-999.0,42,-99.99,,,-99.99,,2013-07-17 01:01:00,
2013-07-16 20:22:00,89.0,65.0,-100.00,SE,135,6.0,-999.0,44,-99.99,,,-99.99,,2013-07-17 01:22:00,
2013-07-16 20:32:00,87.0,66.0,-100.00,SE,135,4.0,-999.0,49,-99.99,,,-99.99,,2013-07-17 01:32:00,
2013-07-16 20:43:00,87.0,66.0,-100.00,SE,135,4.0,-999.0,49,-99.99,,,-99.99,,2013-07-17 01:43:00,
2013-07-16 20:53:00,85.0,66.0,-100.00,ESE,113,4.0,-999.0,53,-99.99,,,-99.99,,2013-07-17 01:53:00,
2013-07-16 21:01:00,83.0,67.0,-100.00,SE,135,5.0,-999.0,58,-99.99,,,-99.99,,2013-07-17 02:01:00,
2013-07-16 21:11:00,83.0,67.0,-100.00,SE,135,5.0,-999.0,58,-99.99,,,-99.99,,2013-07-17 02:11:00,
2013-07-16 21:22:00,80.0,67.0,-100.00,SE,135,6.0,-999.0,65,-99.99,,,-99.99,,2013-07-17 02:22:00,
2013-07-16 21:32:00,78.0,67.0,-100.00,SE,135,6.0,-999.0,68,-99.99,,,-99.99,,2013-07-17 02:32:00,
2013-07-16 21:43:00,78.0,67.0,-100.00,SE,135,6.0,-999.0,68,-99.99,,,-99.99,,2013-07-17 02:43:00,
2013-07-16 21:53:00,77.0,67.0,-100.00,SE,135,6.0,-999.0,70,-99.99,,,-99.99,,2013-07-17 02:53:00,
2013-07-16 22:01:00,76.0,67.0,-100.00,SE,135,7.0,-999.0,72,-99.99,,,-99.99,,2013-07-17 03:01:00,
2013-07-16 22:22:00,76.0,66.0,-100.00,SSE,158,6.0,-999.0,72,-99.99,,,-99.99,,2013-07-17 03:22:00,
2013-07-16 22:32:00,76.0,66.0,-100.00,SE,135,6.0,-999.0,72,-99.99,,,-99.99,,2013-07-17 03:32:00,
2013-07-16 22:43:00,76.0,66.0,-100.00,SE,135,6.0,-999.0,72,-99.99,,,-99.99,,2013-07-17 03:43:00,
2013-07-16 22:53:00,75.0,67.0,-100.00,SE,135,6.0,-999.0,74,-99.99,,,-99.99,,2013-07-17 03:53:00,
2013-07-16 23:01:00,75.0,66.0,-100.00,ESE,113,5.0,-999.0,74,-99.99,,,-99.99,,2013-07-17 04:01:00,
2013-07-16 23:22:00,75.0,66.0,-100.00,SE,135,5.0,-999.0,73,-99.99,,,-99.99,,2013-07-17 04:22:00,
2013-07-16 23:32:00,74.0,66.0,-100.00,SE,135,7.0,-999.0,77,-99.99,,,-99.99,,2013-07-17 04:32:00,
2013-07-16 23:43:00,74.0,66.0,-100.00,SE,135,7.0,-999.0,77,-99.99,,,-99.99,,2013-07-17 04:43:00,
2013-07-16 23:53:00,73.0,66.0,-100.00,SE,135,6.0,-999.0,79,-99.99,,,-99.99,,2013-07-17 04:53:00,